Hourly Weather Roundup
Issued by NWS Central Illinois

Home | Current Version | Previous Version | Text Only | Print | Product List | Glossary On
Versions: 1 2 3 4 5 6 7 8 9 10 11 12 13 14 15 16 17 18 19 20 21 22 23 24 25 26 27 28 29 30 31 32 33 34 35 36 37 38 39 40 41 42 43 44 45 46 47 48 49 50
000
NZUS43 KILX 271510
HWRILX

AREA WEATHER ROUNDUP
NATIONAL WEATHER SERVICE, LINCOLN IL
1000 AM CDT MON MAR 27 2017


CITY           SKY/WX    TMP DP  RH WIND       PRES   REMARKS
BLOOMINGTON    CLOUDY    49  48  97 VRB5      29.94R
CHAMPAIGN      CLOUDY    52  47  83 E12       29.94S
DECATUR        CLOUDY    50  47  89 SE9       29.94R
EFFINGHAM      CLOUDY    54  50  89 E8        29.91F
FLORA          DRIZZLE   54  51  89 E7        29.88F
GALESBURG      DRIZZLE   48  46  95 E3        29.93R
JACKSONVILLE   RAIN      49  47  96 E10       29.92R
LACON          CLOUDY    48  47  95 CALM      29.94R FOG
LAWRENCEVILLE  CLOUDY    55  51  86 SE8       29.94S
LITCHFIELD     LGT RAIN  49  49  97 NE6       29.89F
$$


CITY           SKY/WX    TMP DP  RH WIND       PRES   REMARKS
LINCOLN        LGT RAIN  50  49  98 E6        29.94R
MACOMB         LGT RAIN  48  48 100 E6        29.96R
MATTOON        CLOUDY    54  51  90 SE9       29.93R
MT CARMEL AP   CLOUDY    56  50  81 E7        29.93F
OLNEY-NOBLE AP LGT RAIN  54  54 100 E10       29.89F
PARIS          CLOUDY    53  51  92 E6        29.95F
PEORIA         CLOUDY    50  47  89 NE5       29.93R
PONTIAC        CLOUDY    50  50  98 CALM      29.95R FOG
RANTOUL        CLOUDY    54  51  89 E7        29.94S
SPRINGFIELD    LGT RAIN  50  48  93 E7        29.94R FOG
TAYLORVILLE    RAIN      50  48  93 NE5       29.92S
$$

...REGIONAL REPORTS...


CITY           SKY/WX    TMP DP  RH WIND       PRES   REMARKS
CHICAGO O`HARE FOG       47  45  93 E5        29.95R VSB 1/2
KANKAKEE       CLOUDY    53  50  90 CALM      29.95R
MOLINE         CLOUDY    49  45  86 NE5       29.93R
MOUNT STERLING RAIN      47  46  99 E6        29.91S
MOUNT VERNON   CLOUDY    55  53  93 E8        29.85F
PITTSFIELD     RAIN      48  48  98 NE6       29.92R
QUINCY         LGT RAIN  49  47  93 E9        29.91R FOG
ROCKFORD       CLOUDY    48  43  82 NE7       29.96S
$$


CITY           SKY/WX    TMP DP  RH WIND       PRES   REMARKS
BURLINGTON     CLOUDY    48  47  96 NE6       29.92S FOG
CEDAR RAPIDS   CLOUDY    45  44  97 N6        29.92R
DES MOINES     CLOUDY    46  41  82 NE10      29.92F
KIRKSVILLE     LGT RAIN  47  47 100 NE14      29.91R FOG
OTTUMWA        CLOUDY    47  45  93 NE8       29.93R
ST LOUIS       LGT RAIN  53  50  89 NE7       29.87S FOG
$$


CITY           SKY/WX    TMP DP  RH WIND       PRES   REMARKS
TERRE HAUTE    CLOUDY    56  49  77 SE7       29.94F
EVANSVILLE     LGT RAIN  54  51  90 E8        29.90F
INDIANAPOLIS   PTSUNNY   58  51  78 SE8       29.95F
LAFAYETTE      CLOUDY    54  50  86 E3        29.96S
MADISON        CLOUDY    43  40  89 N5        29.94S
MILWAUKEE      CLOUDY    45  39  79 CALM      29.96R
$$





USA.gov is the U.S. government's official web portal to all federal, state and local government web resources and services.